Simultaneous Nadir Overpasses (SNOs) Predictions

Prediction of SNOs between METOP-C and LANDSAT-8 Satellite Orbit:

Table of predicted SNOs for the next 14.0 days since TLE Epoch: 12/14/2024
Index Date (METOP-C) Time (METOP-C) Lat,Lon (METOP-C) SZA (METOP-C ) Date (LANDSAT-8) Time (LANDSAT-8) Lat,Lon (LANDSAT-8) SZA (LANDSAT-8 ) Distance(km) Time Diff (sec)
1 12/16/2024 17:05:50 -81.11, 143.17 73.54 12/16/2024 17:06:12 -81.11, 143.14 73.54 0.49 22
2 12/16/2024 17:56:29 81.13, -48.94 106.53 12/16/2024 17:55:37 81.14, -48.78 106.53 2.72 52
3 12/19/2024 12:40:12 -81.11,-150.50 73.51 12/19/2024 12:40:28 -81.10,-150.54 73.52 0.91 16
4 12/19/2024 13:30:51 81.13, 17.40 106.56 12/19/2024 13:29:53 81.13, 17.51 106.55 1.92 58
5 12/22/2024 08:14:33 -81.12, -83.92 73.52 12/22/2024 08:14:42 -81.13, -83.78 73.49 2.48 9
6 12/22/2024 09:05:11 81.15, 84.37 106.60 12/22/2024 09:04:07 81.15, 84.24 106.57 2.17 64
7 12/25/2024 03:48:53 -81.12, -17.44 73.59 12/25/2024 03:48:55 -81.13, -17.31 73.58 2.40 2
8 12/25/2024 04:39:31 81.15, 150.85 106.53 12/25/2024 04:38:20 81.15, 150.69 106.48 2.75 71
9 12/27/2024 22:32:34 81.10,-118.78 106.21 12/27/2024 22:33:42 81.11,-118.81 106.24 0.54 68



Historial Predications of SNOs between METOP-C and LANDSAT-8
